Weather History for LKPR - August, 2013

Change the Weather History Date:

Sunday, August 11, 2013

  Actual Average Record
Temperature  
Mean Temperature 62 °F -  
Max Temperature 72 °F 70 °F 94 °F (2015)
Min Temperature 52 °F 51 °F 46 °F (2001)
Degree Days  
Heating Degree Days 3    
Growing Degree Days 12 (Base 50)    
Moisture  
Dew Point 53 °F    
Average Humidity 74    
Maximum Humidity 94    
Minimum Humidity 46    
Precipitation  
Precipitation 0.00 in 0.08 in - ()
Sea Level Pressure  
Sea Level Pressure 30.07 in    
Wind  
Wind Speed 7 mph ()    
Max Wind Speed 17 mph    
Max Gust Speed -    
Visibility 8.1 miles    
Events      
Averages and records for this station are not official NWS values.
T = Trace of Precipitation, MM = Missing Value Source: Averaged Metar Reports

Daily Weather History Graph

Daily Weather History Graph

Search for Another Location

Airport or City:

Trip Planner

Search our weather history database for the weather conditions in past years. The results will help you decide how hot, cold, wet, or windy it might be!

Date:

Astronomy

Aug. 11, 2013 Rise Set
Actual Time 5:46 AM CEST 8:28 PM CEST
Civil Twilight 5:09 AM CEST 9:05 PM CEST
Nautical Twilight 4:22 AM CEST 9:52 PM CEST
Astronomical Twilight 3:25 AM CEST 10:48 PM CEST
Moon 10:50 AM CEST (8/11) 9:57 PM CEST (8/11)
Length of Visible Light 15h 55m
Length of Day
14h 42m
Waxing Crescent, 19% of the Moon is Illuminated
Aug 11
Waxing Crescent
Aug 14
First Quarter
Aug 21
Full
Aug 28
Last Quarter
Sep 5
New

Hourly Weather History & Observations

Time (CEST) Temp. Dew Point Humidity Pressure Visibility Wind Dir Wind Speed Gust Speed Precip Events Conditions
12:00 AM 57.2 °F 55.4 °F 94% 30.09 in - SSW 9.2 mph - N/A   Clear
12:30 AM 57.2 °F 55.4 °F 94% 30.06 in - SSW 8.1 mph - N/A   Clear
1:00 AM 57.2 °F 53.6 °F 88% 30.06 in - SSW 9.2 mph - N/A   Clear
1:30 AM 57.2 °F 53.6 °F 88% 30.09 in - NW 5.8 mph - N/A   Clear
2:00 AM 56 °F 54 °F 91% 30.09 in 19 mi NW 2.2 mph - -   Partly Cloudy
2:00 AM 55.4 °F 53.6 °F 94% 30.09 in - Variable 1.2 mph - N/A   Clear
2:30 AM 55.4 °F 53.6 °F 94% 30.09 in - Variable 1.2 mph - N/A   Clear
3:00 AM 53.6 °F 51.8 °F 94% 30.06 in - Variable 2.3 mph - N/A   Clear
3:30 AM 55.4 °F 53.6 °F 94% 30.06 in - SSW 5.8 mph - N/A   Clear
4:00 AM 55.4 °F 53.6 °F 94% 30.06 in - SW 5.8 mph - N/A   Clear
4:30 AM 53.6 °F 51.8 °F 94% 30.06 in - SW 5.8 mph - N/A   Clear
5:00 AM 53.6 °F 51.8 °F 94% 30.06 in - SW 8.1 mph - N/A   Clear
5:30 AM 53.6 °F 51.8 °F 94% 30.06 in - WSW 8.1 mph - N/A   Clear
6:00 AM 53.6 °F 51.8 °F 94% 30.06 in - WSW 6.9 mph - N/A   Clear
6:30 AM 53.6 °F 51.8 °F 94% 30.06 in - SW 6.9 mph - N/A   Clear
7:00 AM 55.4 °F 53.6 °F 94% 30.06 in - SW 6.9 mph - N/A   Clear
7:30 AM 57.2 °F 55.4 °F 94% 30.06 in - SSW 5.8 mph - N/A   Clear
8:00 AM 59 °F 56 °F 87% 30.07 in 16 mi WSW 4.5 mph - -   Scattered Clouds
8:00 AM 59.0 °F 57.2 °F 94% 30.06 in - WSW 5.8 mph - N/A   Clear
8:30 AM 60.8 °F 57.2 °F 88% 30.06 in - West 6.9 mph - N/A   Clear
9:00 AM 62.6 °F 57.2 °F 82% 30.06 in - West 5.8 mph - N/A   Clear
9:30 AM 64.4 °F 57.2 °F 77% 30.06 in 6.2 mi WNW 6.9 mph - N/A   Partly Cloudy
10:00 AM 66.2 °F 59.0 °F 78% 30.06 in 6.2 mi NW 5.8 mph - N/A   Scattered Clouds
10:30 AM 66.2 °F 57.2 °F 73% 30.06 in 6.2 mi Variable 3.5 mph - N/A   Scattered Clouds
11:00 AM 66.2 °F 57.2 °F 73% 30.06 in 6.2 mi Variable 3.5 mph - N/A   Scattered Clouds
11:30 AM 68.0 °F 55.4 °F 64% 30.06 in 6.2 mi Variable 4.6 mph - N/A   Scattered Clouds
12:00 PM 69.8 °F 55.4 °F 60% 30.06 in 6.2 mi West 8.1 mph - N/A   Scattered Clouds
12:30 PM 68.0 °F 53.6 °F 60% 30.06 in 6.2 mi WNW 6.9 mph - N/A   Mostly Cloudy
1:00 PM 68.0 °F 53.6 °F 60% 30.06 in 6.2 mi WNW 5.8 mph - N/A   Mostly Cloudy
1:30 PM 68.0 °F 53.6 °F 60% 30.06 in 6.2 mi WNW 12.7 mph - N/A   Mostly Cloudy
2:00 PM 69 °F 56 °F 54% 30.04 in 16 mi NNW 11.2 mph - -   Scattered Clouds
2:00 PM 69.8 °F 57.2 °F 64% 30.06 in 6.2 mi NW 11.5 mph - N/A   Partly Cloudy
2:30 PM 69.8 °F 53.6 °F 56% 30.06 in 6.2 mi NNW 6.9 mph - N/A   Partly Cloudy
3:00 PM 69.8 °F 55.4 °F 60% 30.06 in 6.2 mi NW 11.5 mph - N/A   Scattered Clouds
3:30 PM 69.8 °F 53.6 °F 56% 30.04 in 6.2 mi West 5.8 mph - N/A   Partly Cloudy
4:00 PM 69.8 °F 51.8 °F 53% 30.04 in 6.2 mi NNW 13.8 mph - N/A   Partly Cloudy
4:30 PM 71.6 °F 53.6 °F 53% 30.06 in - NW 11.5 mph - N/A   Clear
5:00 PM 71.6 °F 51.8 °F 50% 30.06 in - West 13.8 mph - N/A   Clear
5:30 PM 71.6 °F 50.0 °F 46% 30.06 in - WNW 13.8 mph - N/A   Clear
6:00 PM 69.8 °F 50.0 °F 49% 30.06 in - WNW 13.8 mph - N/A   Clear
6:30 PM 68.0 °F 48.2 °F 49% 30.06 in - NW 17.3 mph - N/A   Clear
7:00 PM 66.2 °F 48.2 °F 52% 30.06 in - NW 13.8 mph - N/A   Clear
7:30 PM 64.4 °F 50.0 °F 59% 30.06 in - NNW 10.4 mph - N/A   Clear
8:00 PM 64 °F 49 °F 48% 30.06 in 44 mi NNW 8.9 mph - -   Partly Cloudy
8:00 PM 62.6 °F 50.0 °F 63% 30.06 in - NNW 9.2 mph - N/A   Clear
8:30 PM 60.8 °F 48.2 °F 63% 30.06 in - North 9.2 mph - N/A   Clear
9:00 PM 59.0 °F 48.2 °F 67% 30.09 in - North 5.8 mph - N/A   Clear
9:30 PM 59.0 °F 48.2 °F 67% 30.09 in - NNW 6.9 mph - N/A   Clear
10:00 PM 59.0 °F 48.2 °F 67% 30.09 in - NNW 4.6 mph - N/A   Clear
10:30 PM 57.2 °F 48.2 °F 72% 30.09 in - WNW 3.5 mph - N/A   Clear
11:00 PM 55.4 °F 50.0 °F 82% 30.09 in - SSW 3.5 mph - N/A   Clear
11:30 PM 55.4 °F 50.0 °F 82% 30.09 in - SSW 3.5 mph - N/A   Clear